Regional Weather Roundup
Issued by NWS San Angelo, TX

Home | Current Version | Previous Version | Text Only | Print | Product List | Glossary On
Versions: 1 2 3 4 5 6 7 8 9 10 11 12 13 14 15 16 17 18 19 20 21 22 23 24 25 26 27 28 29 30 31 32 33 34 35 36 37 38 39 40 41 42 43 44 45 46 47 48 49 50
000
ASUS44 KSJT 240602
RWRSJT
WEST CENTRAL TEXAS REGIONAL WEATHER ROUNDUP
NATIONAL WEATHER SERVICE SAN ANGELO TX
1200 AM CST FRI FEB 24 2017

NOTE: "FAIR" INDICATES FEW OR NO CLOUDS BELOW 12,000 FEET WITH NO
SIGNIFICANT WEATHER AND/OR OBSTRUCTIONS TO VISIBILITY.

TXZ049-054-064>066-071>073-076>078-098-099-113-114-127-128-139-140-
154-155-168>170-240700
...LOCATIONS ACROSS WEST CENTRAL TEXAS...

CITY           SKY/WX    TMP DP  RH WIND       PRES   REMARKS
SAN ANGELO     CLOUDY    58  34  40 S9        29.66R
ABILENE        CLEAR     64  25  22 SW5       29.63R
DYESS AFB      CLEAR     63  29  27 W12       29.62R
JUNCTION       CLEAR     62  42  47 CALM      29.69R
SWEETWATER     NOT AVBL
BROWNWOOD      CLOUDY    57  41  54 CALM      29.65R
COLEMAN        CLEAR     66  31  26 W6        29.65R
SONORA         CLEAR     59  30  33 NE6       29.74S
OZONA          FAIR      59  30  33 MISG      29.75R
BRADY          NOT AVBL
$$

TEXAS PANHANDLE/OKLAHOMA PANHANDLE

CITY           SKY/WX    TMP DP  RH WIND       PRES   REMARKS
AMARILLO       MOCLDY    36  32  85 N18       29.74R WCI  26
BORGER         CLOUDY    39  31  72 N17G24    29.76R WCI  30
CANADIAN       MOCLDY    39  33  79 N18G25    29.74R WCI  30
DALHART        CLOUDY    36  29  75 N22G29    29.78R WCI  25
DUMAS          CLOUDY    35  28  77 N24G33    29.76R WCI  22
GUYMON         NOT AVBL
HEREFORD       CLEAR     36  20  52 N12       29.73R WCI  27
PAMPA          CLOUDY    38  32  79 N24G31    29.74R WCI  27
PERRYTON       MOCLDY    36  30  79 N21G26    29.73R WCI  24
$$

SOUTHERN PANHANDLE/SOUTH PLAINS/ROLLING PLAINS

CITY           SKY/WX    TMP DP  RH WIND       PRES   REMARKS
LUBBOCK        NOT AVBL
SNYDER         CLEAR     60  26  27 W13       29.67R
CHILDRESS      CLEAR     56  26  31 N23       29.64R
SEMINOLE       CLEAR     59  23  25 W12       29.73R
$$

PERMIAN BASIN

CITY           SKY/WX    TMP DP  RH WIND       PRES   REMARKS
MIDLAND        CLEAR     65  14  14 W16       29.70S
ODESSA         CLEAR     64  12  13 W16       29.72S
WINK             N/A    N/A N/A N/A MISG      29.72S
$$

FAR WEST/SOUTHWEST MOUNTAINS/TRANS PECOS

CITY           SKY/WX    TMP DP  RH WIND       PRES   REMARKS
ALPINE         CLEAR     65  13  13 W23G35    29.89R
DRYDEN           N/A     64  23  21 W9        29.69R
EL PASO        CLEAR     56   3  11 W16G29    29.84S
FORT STOCKTON  CLEAR     64  12  13 SW14      29.74S
GUADALUPE PASS CLEAR     50   6  16 W39G51    29.79R
MARFA          CLEAR     54  12  18 W15       29.90R
PECOS          CLEAR     60  13  15 SW12      29.74S
$$

DALLAS/FORT WORTH METROPLEX

CITY           SKY/WX    TMP DP  RH WIND       PRES   REMARKS
DFW AIRPORT    CLEAR     71  60  68 S18G25    29.56R
FTW MEACHAM    CLEAR     72  55  55 S15G24    29.56R
DAL-EXECUTIVE  CLEAR     69  58  67 S10G20    29.57R
GRAND PRAIRIE  CLEAR     69  57  66 S12G20    29.59R
ADDISON        CLEAR     71  56  61 SW7       29.60R
MESQUITE       PTCLDY    68  53  58 S13       29.58R
LANCASTER      CLEAR     68  56  67 S14       29.60R
$$

NORTH CENTRAL TEXAS

CITY           SKY/WX    TMP DP  RH WIND       PRES   REMARKS
SHRMAN/DENISON PTCLDY    68  57  67 SW17      29.56R
GAINESVILLE    CLOUDY    70  53  55 S10       29.56F
BRIDGEPORT     CLOUDY    72  45  37 SW6       29.58R
DENTON         PTCLDY    70  57  63 SW15G26   29.56R
WAXAHACHIE     CLEAR     66  59  77 S13       29.60R
GRANBURY       CLEAR     68  51  55 S5        29.60S
$$

WESTERN NORTH TEXAS

CITY           SKY/WX    TMP DP  RH WIND       PRES   REMARKS
WICHITA FALLS  CLEAR     70  27  20 W22G30    29.50S
VERNON         CLEAR     63  24  22 NW21      29.59R
BRECKENRIDGE   NOT AVBL
COMANCHE       CLEAR     67  40  37 SW7       29.63R
$$

CENTRAL AND SOUTH CENTRAL TEXAS

CITY           SKY/WX    TMP DP  RH WIND       PRES   REMARKS
AUSTIN/BERGSTM PTCLDY    64  61  90 S7        29.65R
WACO           PTCLDY    65  61  87 S10       29.60R
HILLSBORO      CLEAR     66  60  82 S13       29.60R
TEMPLE         PTCLDY    65  62  90 S17       29.61S
KILLEEN-GRAY   CLEAR     67  58  72 S14       29.61R
FORT HOOD      CLEAR     66  57  71 S9        29.58R
GEORGETOWN     CLEAR     68  59  73 S13G23    29.62S
LAGO VISTA     FAIR      67  60  79 S8        29.66R
SAN MARCOS     CLEAR     63  61  94 S9        29.67S
NEW BRAUNFELS  CLEAR     60  58  92 S5        29.65S
RANDOLPH AFB   CLEAR     61  61 100 E3        29.66S
SAN ANTONIO    CLEAR     64  59  83 E3        29.67S
STINSON        CLEAR     66  60  81 E3        29.64R
PLEASANTON     NOT AVBL
LA GRANGE      CLOUDY    67  66  95 S9        29.64S
GIDDINGS       MOCLDY   N/A N/A N/A S10       29.66S
$$

EAST TEXAS

CITY           SKY/WX    TMP DP  RH WIND       PRES   REMARKS
PARIS          CLEAR     68  54  60 S15G21    29.56R
CLARKSVILLE    NOT AVBL
TYLER          CLEAR     65  52  62 S15       29.60F
LONGVIEW       CLEAR     65  56  72 S13       29.62R
PALESTINE      CLEAR     64  58  79 S8        29.64S
NACOGDOCHES    CLEAR     63  57  82 S9        29.65S
$$

TEXAS HILL COUNTRY AND EDWARDS PLATEAU

CITY           SKY/WX    TMP DP  RH WIND       PRES   REMARKS
LLANO          NOT AVBL
HORSESHOE BAY    N/A     68  57  68 S16G25    29.61S
KERRVILLE      CLEAR     64  58  80 SE10      29.68R
FREDERICKSBRG  NOT AVBL
ROCKSPRINGS    NOT AVBL
HONDO          CLEAR     64  59  83 E7        29.65S
UVALDE         PTCLDY    63  59  85 NE9       29.64S
DEL RIO        PTCLDY    63  42  46 CALM      29.59R
$$

SOUTHEAST TEXAS

CITY           SKY/WX    TMP DP  RH WIND       PRES   REMARKS
COLLEGE STN    CLEAR     64  61  90 S9        29.65R
CALDWELL       NOT AVBL
CROCKETT       NOT AVBL
BRENHAM        CLOUDY    65  64  96 S8        29.66S
HUNTSVILLE     CLEAR     64  58  80 S7        29.65R
CONROE         CLEAR     62  60  93 SE12      29.67F
HOUSTON BUSH   PTCLDY    66  62  87 S12       29.67F
HOUSTON HOBBY  MOCLDY    66  64  93 SE7       29.68S
PERLAND        MOCLDY    68  64  87 S8        29.69F
WHARTON        CLEAR     63  61  93 SE10      29.67F
$$

THE UPPER TEXAS COAST

CITY           SKY/WX    TMP DP  RH WIND       PRES   REMARKS
ORANGE         PTCLDY    65  64  95 S7        29.74S
PORT ARTHUR    CLEAR     65  62  90 S9G18     29.71S
GALVESTON        N/A     68  66  93 S20       29.69F
ANGLETON       CLEAR     69  63  81 S17       29.67F
BAY CITY       CLEAR     67  65  93 S8        29.67S
$$

TEXAS COASTAL BEND, RIO GRANDE PLAINS DEEP SOUTH TEXAS

CITY           SKY/WX    TMP DP  RH WIND       PRES   REMARKS
VICTORIA       CLOUDY    70  67  90 S10       29.67R
BEEVILLE       FAIR      67  67 100 S12       29.65S
ROCKPORT         N/A     70  67  90 S9        29.66S
PORT ARANSAS   CLEAR     69  67  93 S12G18    29.66S
PORT LAVACA    PTCLDY    67  67 100 S12       29.67S
CORPUS CHRISTI CLEAR     67  66  97 SE12      29.66S
KINGSVILLE NAS CLEAR     67  67 100 S8        29.66S
COTULLA        CLEAR     69  60  73 SE9       29.60S
LAREDO         CLEAR     72  52  49 SE13      29.61S
BROWNSVILLE    CLEAR     67  65  93 SE6       29.69R
PORT ISABEL    CLEAR     67  66  97 SE8       29.68R
HEBBRONVILLE   CLEAR     63  57  81 SE7       29.66S
MCALLEN        CLEAR     72  67  84 SE15      29.64S
WESLACO        CLOUDY    68  66  91 SE8       29.65S
FALFURRIAS     CLEAR    N/A N/A N/A SE6       29.65F
EDINBURG       CLEAR     69  65  89 SE8       29.65S
$$




USA.gov is the U.S. government's official web portal to all federal, state and local government web resources and services.